User: anonymous   Login
Location: Irma
(52.9170°N, 111.2330°W)
Time: 17:14:25
(UTC-07:00)
Language:

Cosmos 1633 Rocket - Orbit

View from above orbital plane
View from above orbital plane
View from above satellite
View from above satellite

Ground track
Ground track

The orbit data is extracted from the following two-line orbital elements,

1 15593U 85020B   15027.91164175  .00000401  00000-0  45353-4 0  8805
2 15593 082.5396 357.8086 0012524 044.3248 343.1588 14.83920001615141
Epoch (UTC): 27 January 2015 21:52:45
Eccentricity: 0.0012524
inclination: 82.5396°
perigee height: 608 km
apogee height: 626 km
right ascension of ascending node: 357.8086°
argument of perigee: 44.3248°
revolutions per day: 14.83920001
mean anomaly at epoch: 343.1588°
orbit number at epoch: 61514

The dashed part of the orbit path shows where the satellite is in the earth's shadow,  

DLR